Back to catalog

STARLINK-1392

AliveCommunicationsVLEO
NORAD 45677·PAYLOAD·🇺🇸 United States

Launched Jun 4, 2020 from Cape Canaveral Space Force Station

Loading…

Next Passes (next 24 hours)

TLE

FreshSource: CelesTrak SupGP

Epoch: Sep 14, 2026, 20:34 UTC

1 45677C 20035W   26257.85743056  .00077456  00000+0  14970-2 0  2577
2 45677  53.1473 254.7736 0001340  47.6241 129.2805 15.47143527    17

Track STARLINK-1392 in real time with AllMySat

Download on the App Store